NOAA 16 DEB

Satellite information

Favourite Embed

Satellite Type and Status

DEBRISIN ORBIT

Key statistics

Satellite NOAA 16 DEB at a glance.

Uptime

9055

Days in orbit

Revolutions

≈ 14.1

Per day

Orbit

SSO

Sun Synchronous Orbit

Inclination

98.8

Latest

Satellite identification and parameters

Extended collection of information and parameters for NOAA 16 DEB.

Object identification

Identified? True

Debris? True

Object name: NOAA 16 DEB

International designator: 2000-055BH

Object number (NORAD): 41126

Object ID (CCSDS): 41126

Country: UNITED STATES OF AMERICA (US)

Current information (Y/N): Y

RCS size: SMALL

Orbital parameters

Period: 102.022 minutes

Inclination: 98.7616 deg

SMA: 7232.536 km

Apoapsis: 900.971 km

Periapsis: 807.831 km

RAAN: 191.881 deg

Eccentricy: 0.006439

Argument of periapsis: 259.9423 deg

Mean anomaly: 99.4479 deg

Mean motion: 14.11454372 rev/day

Mean motion (dot): 0.00002091 rev/day2

B* drag term: 0.0011554 1/REarth

Two-line elements (TLE)

Creation date: July 5, 2025, 11:06 p.m.

Reference frame: TEME

Reference center: EARTH

Epoch: July 5, 2025, 8:23 p.m. UTC

TLE line 0: 0 NOAA 16 DEB

TLE line 1: 1 41126U 00055BH 25186.84985406 .00002091 00000-0 11554-2 0 9990

TLE line 2: 2 41126 98.7616 191.8810 0064390 259.9423 99.4479 14.11454372490431

Live tracking on map

Real-time ground track for satellite NOAA 16 DEB.

In-orbit conjunctions

A list of the most updated potential collisions computed for object NOAA 16 DEB.

Target Orbit TCA Probability of collision Miss distance Type
SL-16 DEB LEO 2025-05-26 17:03:33 0.0001992746 188.0 (m) DEBRIS
LANDSAT 2 SSO 2025-02-19 05:12:05 0.0001946809 821.0 (m) PAYLOAD

Associated space launch

The NOAA K, L and M POES satellites begin the fifth generation of improved environmental monitoring in support of NOAA missions. The instrument payload has significant improvements and additions/deletions. The instrument changes have effected the spacecraft subsystems and data formats.

NOAA 16 DEB was lifted into orbit during the mission ‘Titan II SLV | NOAA 16’, on board a Titan II SLV space rocket.

The launch took place on Sept. 21, 2000, 10:22 a.m. from Space Launch Complex 4W.

For more information about the launch, click the button.

Launch to space Titan II SLV | NOAA 16
Titan II SLV | NOAA 16

Agency: N/A

Status: Launch Successful

Launch date: Sept. 21, 2000, 10:22 a.m. UTC

Rocket: Titan II SLV

Launch pad: Space Launch Complex 4W

Location: Vandenberg SFB, CA, USA

...

Latest news about this satellite

There are no fresh news available about this satellite. Check back as we update our databases every day.


Newsletter sign-up

Weekly statistics, charts and insights to help you stay on top of the space industry.